Showing default

FLOCK 4Q 23, 58307

Orbit data source: Space-Track

FLOCK 4Q 23, 58307 is a payload satellite owned by Planet (US) in SSO that was launched on Sat, 11 Nov 2023 UTC via an FALCON 9 launch vehicle from the Air Force Western Test Range (AFWTR). Payload-class satellites include a variety of spacecraft equipped with specific instruments for various scientific and technological missions. These include communications satellites like Starlink; space stations such as the ISS; scientific satellites like the Hubble; Earth observation satellites from companies like Planet Labs, Umbra, and HawkEye 360; GPS; miniature CubeSats for education and research; and military/defense satellites.

Loading next visibility...
Identifier
58307, 2023-174BD
Orbit
SSO
Country
Flag of USUS
Related business
Manufacturer
Planet
Mission
Operational Commercial Imaging
Bus & Motor
CUBESAT 3U, Unknown motor
Mass
5.7 kg wet, 5.7 kg dry
Launch date (UTC)
2023-11-11 (2 years ago)
Launch vehicle
FALCON 9
Launch site
Air Force Western Test Range (AFWTR)
Object type
Payload
Rocket body
Debris
Shape & HBR
Box + 2 Pan, 1.0 m
Radar Cross Section
0.072 m², Medium (>0.1 m² and < 1m²)

Expand to show TLE details & history
Last TLE update: 7 hours ago

TLE from 7 hours ago
0 FLOCK 4Q 23
1 58307U 23174BD  25289.14833914  .00028414  00000-0  65206-3 0  9990
2 58307  97.4129  11.0270 0006534 303.0669  56.9951 15.42663021108063
Epoch: 2025-10-16T03:33Z
TLE epoch observation values (Epoch: 2025-10-16T03:33:36.501Z)
Latitude
0.00002°
Longitude
-67.28731°
Altitude
438.95 km
Speed
7.65 km/s
True Right ascension
00h 44m 06s
True Declination
0° 00' 00"
Sunlit
Object was in full shadow at epoch
Visualization orbit readout
Latitude
Unknown
Longitude
Unknown
Altitude
Unknown
Speed
Unknown
Apparent Right ascension
Unknown
Apparent Declination
Unknown
Sunlit
N/A
Visualization observer readout
Local Sidereal Time
05:42:31
Azimuth
Unknown
Elevation
Unknown
Doppler factor
Unknown
Orbital elements
Apogee altitude
439.641 km
Perigee altitude
430.738 km
Semi-major axis
6,813.326 km
Eccentricity
0.00065
Inclination
97.4129°
RAAN
11.027°
Arg. of periapsis
303.0669°
True anomaly
57.05792°
Mean anomaly
56.9951°
Eccentric anomaly
57.02651°
Mean motion
3.85926 °/min
Orbital period
93.28 mins
BSTAR
0.00065206
Loading maneuver chart data...
Computing Atmospheric mass density...
Loading historical data...
Loading historical data...
Loading historical data...
Loading historical data...
Loading historical data...
Loading historical data...
Loading historical data...

Documentation

Showing up to 5 results
|